Starlink 34604

operational
NORAD ID: 64801 Int'l Des: 2025-150 Owner: SPXS Country: US Constellation: starlink
LEOCIRCULAR

Über Starlink 34604

Beschreibung wird geladen...

Live-Position

3D-Globus wird geladen...

Nächste Überflüge

Höhenverlauf

Altitude vs Time

uPlot chart will show altitude changes over time

Zweizeiliger Elementsatz

1 64801U 25150M 25340.53959283 .00077363 00000-0 17481-2 0 9999
2 64801 70.0028 10.5199 0004273 274.6526 85.4168 15.42780655 22538
Epoch: 6. Dez. 2025 • Age: 15 hours

Aktueller Status

Höhe 441.2 km
Geschwindigkeit 7.65 km/s
Subsatellitenpunkt -7.71°S, 58.98°E
Startdatum 16. Juli 2025
Alter 0.3 years
Typ internet

Technische Details

Klassifizierung Payload
Masse 575.00 kg
Trockenmasse 530.00 kg
Gesamtmasse 575.00 kg
Länge 0.30 m
Durchmesser 4.10 m
Spannweite 29.00 m
Form Box + pan
Hersteller SPXS
Bus-Typ Starlink V2MO
Phasenstatus In Orbit
Besitzer/Staat SPXS/US

Große Konstellationen

Loading constellations...